Glennallen, AK

7:53 AM AKST on February 27, 2017 (GMT -0900)
Gulkana

Weather History for PAGK - April, 2014

Change the Weather History Date:

Thursday, April 17, 2014

  Actual Average Record
Temperature  
Mean Temperature 38 °F -  
Max Temperature 48 °F 42 °F 55 °F (1999)
Min Temperature 27 °F 23 °F -6 °F (2008)
Degree Days  
Heating Degree Days 28    
Moisture  
Dew Point 26 °F    
Average Humidity 64    
Maximum Humidity 88    
Minimum Humidity 32    
Precipitation  
Precipitation 0.00 in - - ()
Sea Level Pressure  
Sea Level Pressure 29.42 in    
Wind  
Wind Speed 3 mph (SSE)    
Max Wind Speed 6 mph    
Max Gust Speed -    
Visibility 10 miles    
Events      
Averages and records for this station are not official NWS values.
T = Trace of Precipitation, MM = Missing Value Source: NWS Daily Summary

Daily Weather History Graph

Daily Weather History Graph

Search for Another Location

Airport or City:

Trip Planner

Search our weather history database for the weather conditions in past years. The results will help you decide how hot, cold, wet, or windy it might be!

Date:

Astronomy

Apr. 17, 2014 Rise Set
Actual Time 6:10 AM AKDT 9:13 PM AKDT
Civil Twilight 5:19 AM AKDT 10:05 PM AKDT
Nautical Twilight 4:06 AM AKDT 11:19 PM AKDT
Astronomical Twilight 2:13 AM AKDT 1:08 AM AKDT
Moon No Moon Rise 7:14 AM AKDT (4/17)
Length of Visible Light 16h 46m
Length of Day
15h 02m
Waning Gibbous, 93% of the Moon is Illuminated
Apr 17
Waning Gibbous
Apr 21
Last Quarter
Apr 28
New
May 6
First Quarter
May 14
Full

Hourly Weather History & Observations

Time (AKDT) Temp. Windchill Dew Point Humidity Pressure Visibility Wind Dir Wind Speed Gust Speed Precip Events Conditions
12:53 AM 34.0 °F 28.8 °F 28.0 °F 79% 29.55 in 10.0 mi NW 5.8 mph - N/A   Overcast
1:53 AM 33.1 °F 27.7 °F 28.0 °F 82% 29.54 in 10.0 mi NW 5.8 mph - N/A   Mostly Cloudy
2:53 AM 33.1 °F 28.7 °F 27.0 °F 78% 29.53 in 10.0 mi NNW 4.6 mph - 0.00 in   Overcast
3:53 AM 33.1 °F - 27.0 °F 78% 29.51 in 10.0 mi Calm Calm - N/A   Overcast
4:53 AM 33.1 °F - 28.0 °F 82% 29.50 in 10.0 mi Calm Calm - N/A   Overcast
5:53 AM 30.9 °F - 27.0 °F 85% 29.49 in 10.0 mi Calm Calm - N/A   Overcast
6:53 AM 28.0 °F - 25.0 °F 88% 29.48 in 10.0 mi Calm Calm - N/A   Clear
7:50 AM 28.4 °F - 24.8 °F 86% 29.40 in 10.0 mi Calm Calm - N/A   Mostly Cloudy
7:53 AM 28.0 °F 24.2 °F 25.0 °F 88% 29.47 in 10.0 mi NE 3.5 mph - N/A   Mostly Cloudy
9:16 AM 34.0 °F 31.0 °F 26.1 °F 73% 29.38 in 10.0 mi NW 3.5 mph - N/A   Overcast
9:38 AM 34.0 °F 31.0 °F 27.0 °F 75% 29.38 in 10.0 mi West 3.5 mph - N/A   Overcast
9:53 AM 34.0 °F - 27.0 °F 75% 29.44 in 10.0 mi Calm Calm - N/A   Overcast
10:53 AM 36.0 °F - 27.0 °F 70% 29.43 in 10.0 mi Calm Calm - N/A   Mostly Cloudy
11:53 AM 39.0 °F 36.8 °F 28.9 °F 67% 29.41 in 10.0 mi ESE 3.5 mph - N/A   Mostly Cloudy
12:44 PM 39.9 °F 36.7 °F 28.0 °F 63% 29.34 in 10.0 mi SSE 4.6 mph - N/A   Partly Cloudy
12:53 PM 41.0 °F 37.1 °F 28.0 °F 60% 29.39 in 10.0 mi SE 5.8 mph - N/A   Partly Cloudy
1:53 PM 43.0 °F - 27.0 °F 53% 29.39 in 10.0 mi Calm Calm - N/A   Mostly Cloudy
2:53 PM 44.1 °F 42.5 °F 27.0 °F 51% 29.39 in 10.0 mi Variable 3.5 mph - N/A   Scattered Clouds
3:53 PM 44.1 °F 41.5 °F 24.1 °F 45% 29.38 in 10.0 mi SSW 4.6 mph - N/A   Partly Cloudy
4:53 PM 45.0 °F - 23.0 °F 42% 29.36 in 10.0 mi Calm Calm - N/A   Clear
5:53 PM 46.9 °F - 21.9 °F 37% 29.35 in 10.0 mi Calm Calm - N/A   Clear
6:53 PM 44.1 °F 40.8 °F 23.0 °F 43% 29.36 in 10.0 mi ESE 5.8 mph - N/A   Scattered Clouds
7:53 PM 46.0 °F 43.9 °F 23.0 °F 40% 29.36 in 10.0 mi Variable 4.6 mph - N/A   Overcast
8:53 PM 41.0 °F 39.0 °F 24.1 °F 51% 29.37 in 10.0 mi South 3.5 mph - N/A   Partly Cloudy
9:53 PM 35.1 °F - 24.1 °F 64% 29.37 in 10.0 mi Calm Calm - N/A   Mostly Cloudy
10:53 PM 36.0 °F 33.3 °F 23.0 °F 59% 29.38 in 10.0 mi ESE 3.5 mph - N/A   Partly Cloudy
11:53 PM 34.0 °F 28.8 °F 23.0 °F 64% 29.39 in 10.0 mi SSE 5.8 mph - N/A   Clear